contact:dominique.lefevre@mio.osupytheas.fr, maurice.libes@osupytheas.fr
Project:EMSO Ligure-ouest http://www.emso-fr.org/EMSO-France
Sensor Aquadopp, line 13 Serial AQD14315 
DOI : "https://doi.org/10.17882/74513; https://doi.org/10.17882/83244" 
Title:EMSO Ligure Ouest : Data ligne ALBATROSS capteur AQUADOPP - deploiement 2021
Id,Date,Profondeur,Latitude,Longitude,X_East,Y_North,Z_Up,Amplitude_X,Amplitude_Y,Amplitude_Z,Batterie,SoundSpeed,Heading,Pitch,Roll,Pressure,Temperature,Speed,Direction
, , m, degrees North, degrees East, m.s-1, m.s-1,m.s-1, 1, 1, 1, Volt, m.s-1, degree, degree, degree, dbar, degree_C, m.s-1, degree
09,2023-01-08T23:30:00,2000.0,42.79,6.0312,-0.012,-0.007,0.009,62.0,62.0,61.0,12.5,1504.6,291.3,-0.8,1.0,1992.449,13.27,0.013,239.7
09,2023-01-09T00:00:00,2000.0,42.79,6.0312,-0.033,0.021,-0.028,64.0,59.0,62.0,12.5,1504.7,293.2,-0.8,0.9,1992.435,13.28,0.039,302.5
09,2023-01-09T00:30:00,2000.0,42.79,6.0312,0.003,0.015,-0.066,64.0,61.0,63.0,12.4,1504.7,293.1,-0.8,0.9,1992.352,13.28,0.015,11.3
09,2023-01-09T01:00:00,2000.0,42.79,6.0312,-0.006,0.016,-0.021,62.0,62.0,63.0,12.4,1504.7,292.1,-0.8,0.9,1992.384,13.28,0.017,339.4
09,2023-01-09T02:00:00,2000.0,42.79,6.0312,-0.013,0.012,-0.007,66.0,62.0,66.0,12.5,1504.6,290.7,-0.8,1.0,1992.388,13.27,0.017,312.7
09,2023-01-09T02:30:00,2000.0,42.79,6.0312,-0.017,0.006,-0.007,65.0,65.0,66.0,12.4,1504.6,293.7,-0.8,1.0,1992.393,13.27,0.018,289.4
09,2023-01-09T03:00:00,2000.0,42.79,6.0312,-0.021,0.018,0.005,66.0,64.0,66.0,12.4,1504.6,291.1,-0.9,0.9,1992.383,13.27,0.027,310.6
09,2023-01-09T03:30:00,2000.0,42.79,6.0312,-0.011,0.019,-0.007,67.0,66.0,67.0,12.5,1504.6,293.2,-0.9,0.9,1992.346,13.27,0.021,329.9
09,2023-01-09T04:00:00,2000.0,42.79,6.0312,-0.018,0.015,-0.008,68.0,62.0,66.0,12.5,1504.6,295.9,-0.8,0.9,1992.4,13.27,0.023,309.8
09,2023-01-09T04:30:00,2000.0,42.79,6.0312,-0.018,0.032,-0.022,69.0,64.0,66.0,12.5,1504.6,296.0,-0.7,0.9,1992.392,13.27,0.036,330.6
09,2023-01-09T05:00:00,2000.0,42.79,6.0312,-0.001,0.02,-0.02,68.0,64.0,66.0,12.5,1504.6,296.9,-0.8,0.9,1992.446,13.27,0.02,357.1
09,2023-01-09T05:30:00,2000.0,42.79,6.0312,-0.002,0.012,-0.025,67.0,63.0,68.0,12.5,1504.6,295.2,-0.7,0.9,1992.455,13.27,0.012,350.5
09,2023-01-09T06:00:00,2000.0,42.79,6.0312,-0.015,0.0,-0.015,65.0,66.0,66.0,12.5,1504.6,295.8,-0.7,0.9,1992.532,13.27,0.015,270.0
09,2023-01-09T06:30:00,2000.0,42.79,6.0312,-0.001,0.029,-0.012,70.0,64.0,68.0,12.5,1504.6,296.9,-0.8,0.9,1992.56,13.27,0.029,358.0
09,2023-01-09T07:00:00,2000.0,42.79,6.0312,-0.006,0.025,-0.008,67.0,66.0,67.0,12.5,1504.6,295.8,-0.8,1.0,1992.555,13.27,0.025,346.5
09,2023-01-09T07:30:00,2000.0,42.79,6.0312,0.001,0.011,0.025,68.0,66.0,67.0,12.5,1504.6,291.8,-0.8,0.9,1992.566,13.27,0.011,5.2
09,2023-01-09T08:00:00,2000.0,42.79,6.0312,0.001,0.021,-0.014,68.0,68.0,68.0,12.5,1504.6,293.6,-0.8,0.9,1992.619,13.27,0.021,2.7
09,2023-01-09T08:30:00,2000.0,42.79,6.0312,0.016,0.001,-0.009,67.0,65.0,67.0,12.5,1504.6,294.8,-0.8,0.9,1992.597,13.27,0.016,86.4
09,2023-01-09T09:00:00,2000.0,42.79,6.0312,0.009,0.011,0.014,67.0,65.0,67.0,12.4,1504.6,294.4,-0.8,0.8,1992.605,13.27,0.014,39.3
09,2023-01-09T09:30:00,2000.0,42.79,6.0312,-0.002,-0.003,-0.024,67.0,64.0,68.0,12.4,1504.6,295.5,-0.8,0.9,1992.601,13.27,0.003,213.7
09,2023-01-09T10:00:00,2000.0,42.79,6.0312,0.011,-0.001,0.02,67.0,63.0,70.0,12.4,1504.6,296.4,-0.8,0.9,1992.638,13.27,0.011,95.2
09,2023-01-09T10:30:00,2000.0,42.79,6.0312,0.023,-0.003,0.0,70.0,69.0,68.0,12.5,1504.6,297.3,-0.8,1.0,1992.624,13.27,0.023,97.4
09,2023-01-09T11:00:00,2000.0,42.79,6.0312,0.002,0.008,0.01,66.0,64.0,66.0,12.5,1504.6,298.7,-0.8,1.0,1992.59,13.27,0.008,14.0
09,2023-01-09T11:30:00,2000.0,42.79,6.0312,0.003,-0.008,0.007,66.0,64.0,69.0,12.5,1504.6,298.2,-0.8,1.0,1992.546,13.27,0.008,159.4
09,2023-01-09T12:30:00,2000.0,42.79,6.0312,0.0,0.003,0.0,70.0,65.0,65.0,12.4,1504.6,301.9,-0.7,0.8,1992.54,13.27,0.003,0.0
09,2023-01-09T13:00:00,2000.0,42.79,6.0312,0.0,-0.003,-0.015,68.0,63.0,68.0,12.5,1504.6,302.8,-0.8,0.9,1992.529,13.27,0.003,180.0
09,2023-01-09T13:30:00,2000.0,42.79,6.0312,-0.009,0.003,-0.035,70.0,66.0,66.0,12.4,1504.6,304.9,-0.8,0.9,1992.448,13.27,0.009,288.4
09,2023-01-09T14:00:00,2000.0,42.79,6.0312,0.001,-0.001,-0.009,67.0,63.0,65.0,12.4,1504.6,306.9,-0.8,0.9,1992.494,13.27,0.001,135.0
09,2023-01-09T15:00:00,2000.0,42.79,6.0312,0.014,-0.006,0.002,67.0,64.0,67.0,12.5,1504.6,309.5,-0.8,1.0,1992.404,13.27,0.015,113.2
09,2023-01-09T15:30:00,2000.0,42.79,6.0312,-0.017,0.009,0.001,68.0,63.0,73.0,12.4,1504.6,312.4,-0.7,0.9,1992.439,13.27,0.019,297.9
09,2023-01-09T16:00:00,2000.0,42.79,6.0312,-0.011,-0.006,-0.026,69.0,66.0,69.0,12.4,1504.6,312.7,-0.7,1.0,1992.445,13.27,0.012,241.4
09,2023-01-09T16:30:00,2000.0,42.79,6.0312,-0.005,0.021,0.0,68.0,64.0,66.0,12.5,1504.6,308.9,-0.7,0.9,1992.427,13.27,0.021,346.6
09,2023-01-09T17:00:00,2000.0,42.79,6.0312,0.011,0.0,-0.005,69.0,67.0,74.0,12.5,1504.6,308.1,-0.8,0.9,1992.492,13.27,0.011,90.0
09,2023-01-09T17:30:00,2000.0,42.79,6.0312,0.001,0.004,-0.01,71.0,67.0,70.0,12.4,1504.6,310.9,-0.7,0.9,1992.486,13.27,0.004,14.0
09,2023-01-09T18:00:00,2000.0,42.79,6.0312,-0.003,0.006,0.044,70.0,65.0,66.0,12.4,1504.6,309.0,-0.7,0.9,1992.436,13.27,0.006,333.4
09,2023-01-09T18:30:00,2000.0,42.79,6.0312,-0.002,0.005,-0.006,66.0,66.0,72.0,12.5,1504.6,308.4,-0.8,0.9,1992.477,13.27,0.005,338.2
09,2023-01-09T19:00:00,2000.0,42.79,6.0312,0.0,0.004,-0.02,66.0,66.0,69.0,12.5,1504.7,310.3,-0.8,0.9,1992.481,13.28,0.004,0.0
09,2023-01-09T19:30:00,2000.0,42.79,6.0312,-0.006,0.006,0.007,64.0,66.0,66.0,12.5,1504.6,311.7,-0.7,1.0,1992.53,13.27,0.008,315.0
09,2023-01-09T20:00:00,2000.0,42.79,6.0312,0.0,0.017,-0.001,67.0,65.0,69.0,12.4,1504.6,312.4,-0.7,0.9,1992.523,13.27,0.017,0.0
09,2023-01-09T20:30:00,2000.0,42.79,6.0312,-0.006,0.013,-0.01,66.0,63.0,67.0,12.5,1504.6,312.4,-0.7,0.9,1992.515,13.27,0.014,335.2
09,2023-01-09T21:00:00,2000.0,42.79,6.0312,0.0,0.003,0.013,66.0,65.0,67.0,12.4,1504.6,308.7,-0.7,0.9,1992.487,13.27,0.003,0.0
09,2023-01-09T21:30:00,2000.0,42.79,6.0312,-0.013,0.011,0.009,68.0,64.0,66.0,12.5,1504.6,309.9,-0.6,0.9,1992.483,13.27,0.017,310.2
09,2023-01-09T22:00:00,2000.0,42.79,6.0312,0.0,0.035,-0.009,67.0,64.0,65.0,12.5,1504.6,309.6,-0.6,1.0,1992.486,13.27,0.035,0.0
09,2023-01-09T22:30:00,2000.0,42.79,6.0312,-0.008,0.026,0.025,68.0,65.0,65.0,12.5,1504.6,305.9,-0.7,0.9,1992.503,13.27,0.027,342.9
09,2023-01-09T23:00:00,2000.0,42.79,6.0312,0.014,0.013,-0.015,69.0,60.0,67.0,12.4,1504.6,303.3,-0.7,0.9,1992.409,13.27,0.019,47.1
